ニート彗星

P/2004 F3 ( NEAT )

English version
Home page
Total 6,336 html files since Dec. 4, 1995
Updated on April 12, 2008

---------------------------------------------------------------------

・ プロフィール

発見日 2004年3月28日
発見光度 17.1等
発見者 Near-Earth-Asteroid Tracking Team (Jet Propulsion Laboratory)

・ 写真集

・ 軌道要素

The following orbital elements are taken from MPC 57793:

Epoch 2004 Dec. 21.0 TT = JDT 2453360.5
T 2005 Jan. 4.2996 TT                                   MPC
q   2.864067             (2000.0)            P               Q
n   0.1225303      Peri.  176.1249      -0.2569912      +0.9278672
a   4.014583       Node    78.8314      -0.8939072      -0.1219683
e   0.286584       Incl.   15.9879      -0.3672675      -0.3524007
P   8.04
From 1021 observations 2004 Jan. 29-2006 Oct. 1, mean residual 0".5.

・ 星図

・ 光度変化

        m1 = 9.5 + 5 logΔ + 7.5 log r

---------------------------------------------------------------------

軌道要素はMPCのEphemerides and Orbital Elementsに掲載されたものです。
星図は StellaNavigator Ver.2.0 for Windows (アストロアーツ 編著 / アスキー出版局刊) で作成したものです。
光度グラフはComet for Windowsで作成したものです。

---------------------------------------------------------------------

Copyright(C) 1995-2008 Seiichi Yoshida (comet@aerith.net). All rights reserved.